Regional Weather Roundup
Issued by NWS

Home | Current Version | Previous Version | Text Only | Print | Product List | Glossary On
Versions: 1 2 3 4 5 6 7 8 9 10 11 12 13 14 15 16 17 18 19 20 21 22 23 24 25 26 27 28 29 30 31 32 33 34 35 36 37 38 39 40 41 42 43 44 45 46 47 48 49 50
000
ASCA44 KEWX 251120
RWRMX

LATIN AMERICA AND CARIBBEAN REGIONAL WEATHER ROUNDUP
NATIONAL WEATHER SERVICE AUSTIN/SAN ANTONIO TX
600 AM CDT FRI JUL 25 2014

NOTE: "FAIR" INDICATED FEW OR NO CLOUDS BELOW 12,000 FEET WITH NO
SIGNIFICANT WEATHER AND/OR OBSTRUCTIONS TO VISIBILITY.

BAJA CALIFORNIA

CITY           SKY/WX    TMP DP  RH WIND       PRES   REMARKS
TIJUANA        MOCLDY    68  61  77 NW5       29.90S

NORTHWESTERN MEXICO

CITY           SKY/WX    TMP DP  RH WIND       PRES   REMARKS
DURANGO        PTCLDY    61  52  72 CALM      30.27S
HERMOSILLO     CLOUDY    90  68  48 CALM      29.90  HX  93
LOS MOCHIS     CLEAR     81  72  74 SE6       29.87
OBREGON        CLEAR     82  70  65 E6        29.84

NORTHEASTERN MEXICO

CITY           SKY/WX    TMP DP  RH WIND       PRES   REMARKS
CHIHUAHUA      MOCLDY    68  48  49 CALM      30.17
MONTERREY      CLEAR     75  68  78 CALM      29.98S
NUEVO LAREDO   CLEAR     82  72  69 SE6       29.96
SALTILLO       PTCLDY    66  59  77 CALM      30.21
TORREON        CLEAR     72  52  49 CALM      30.11
CD. VICTORIA   CLEAR     75  68  78 S14       29.99

WESTERN MEXICO

CITY           SKY/WX    TMP DP  RH WIND       PRES   REMARKS
AGUASCALIENTES CLEAR     52  50  93 N5        30.31
COLIMA         PTCLDY    72  61  68 N12       30.02
DEL BAJIO      MOCLDY    55  37  50 CALM      30.32R
GUADALAJARA    MOCLDY    59  55  88 E2        30.20
MAZATLAN       MOCLDY    73  66  78 NE9       29.87F
P. VALLARTA    MOCLDY    73  70  88 N3        29.90F
ZACATECAS      CLEAR     52  43  71 CALM      30.34R

CENTRAL MEXICO

CITY           SKY/WX    TMP DP  RH WIND       PRES   REMARKS
MEXICO CITY    MOCLDY    55  54  94 CALM      30.36F
MORELIA        CLEAR     52  52 100 CALM      30.26
POZA RICA      PTCLDY    73  72  94 CALM      30.01  FOG
PUEBLA         PTCLDY    48  46  93 N5        30.37  WCI  46
QUERETARO      MOCLDY    57  54  88 CALM      30.36F
S. LUIS POTOSI PTCLDY    57  54  88 CALM      30.31R
TAMPICO        PTCLDY    77  73  88 CALM      29.98
TOLUCA         MOCLDY    50  43  76 E3        30.42S

SOUTHERN MEXICO

CITY           SKY/WX    TMP DP  RH WIND       PRES   REMARKS
ACAPULCO       MOCLDY    77  73  88 CALM      29.86S
OAXACA         PTCLDY    59  54  82 N2        30.26
VERACRUZ       CLEAR     73  72  94 CALM      29.96

YUCATAN PENINSULA

CITY           SKY/WX    TMP DP  RH WIND       PRES   REMARKS
CAMPECHE       PTCLDY    75  73  94 SE5       29.97R
CANCUN         PTCLDY    75  73  94 CALM      30.01S
COZUMEL        PTCLDY    72  72 100 CALM      30.02R
MERIDA         PTCLDY    75  72  88 E6        30.01R
MINATITLAN     MOCLDY    81  72  74 CALM      29.93
TAPACHULA      MOCLDY    79  75  89 CALM      29.86S
TUX. GUTIERREZ MOCLDY    68  68 100 S2        29.98
VILLAHERMOSA   CLEAR     77  73  88 E6        29.96R

CENTRAL AMERICA

CITY           SKY/WX    TMP DP  RH WIND       PRES   REMARKS
BELIZE CITY    PTCLDY    82  75  78 E6        29.97
MANAGUA        MOSUNNY   79  72  78 E5        29.83R

CARIBBEAN

CITY           SKY/WX    TMP DP  RH WIND       PRES   REMARKS
ARUBA          PTCLDY    81  75  83 E16       29.92S
CURACAO        PTCLDY    81  75  83 E13       29.94S
KINGSTON       PTCLDY    82  73  74 W6        29.97R
NASSAU         PTCLDY    82  75  78 SE9       30.08R
SAN JUAN       MOSUNNY   82  75  78 E8        30.07R
SANTO DOMINGO  PTCLDY    77  73  88 NE6       30.00S
ST. CROIX      SUNNY     82  73  74 NE9       30.06R
ST. KITTS      PTSUNNY   81  77  89 E18       30.03S
ST. MAARTEN    MOSUNNY   82  73  74 E13       30.06R
ST. THOMAS     CLOUDY    82  75  78 E12       30.06R

$$



USA.gov is the U.S. government's official web portal to all federal, state and local government web resources and services.